This is the latest recevied weather packets stored in our database for station/object W2GRK-15. If no packets are shown the sender has not sent any weather packets the latest 10 day(s).
| Time | Temp. | Humidity | Pressure | Rain* | Wind** | Luminosity | Snow |
|---|---|---|---|---|---|---|---|
| 1777868956 | 8.89° C | 56% | 1013.8 hPa | 0 mm | - | 0 W/m² | - |
| 1777868844 | 8.89° C | 56% | 1013.7 hPa | 0 mm | - | 0 W/m² | - |
| 1777868779 | 8.89° C | 56% | 1013.8 hPa | 0 mm | - | 0 W/m² | - |
| 1777868686 | 8.89° C | 56% | 1013.7 hPa | 0 mm | - | 0 W/m² | - |
| 1777868602 | 8.89° C | 56% | 1013.7 hPa | 0 mm | - | 0 W/m² | - |
| 1777868316 | 8.89° C | 56% | 1013.5 hPa | 0 mm | - | 0 W/m² | - |
| 1777868248 | 8.89° C | 56% | 1013.4 hPa | 0 mm | - | 0 W/m² | - |
| 1777867523 | 9.44° C | 55% | 1013.7 hPa | 0 mm | - | 0 W/m² | - |
| 1777867105 | 9.44° C | 55% | 1013.7 hPa | 0 mm | - | 0 W/m² | - |
| 1777866928 | 9.44° C | 55% | 1013.5 hPa | 0 mm | - | 0 W/m² | - |
| 1777866883 | 9.44° C | 55% | 1013.6 hPa | 0 mm | - | 0 W/m² | - |
| 1777866706 | 8.89° C | 55% | 1013.5 hPa | 0 mm | - | 0 W/m² | - |
| 1777866557 | 8.89° C | 56% | 1013.7 hPa | 0 mm | - | 0 W/m² | - |
| 1777866509 | 8.89° C | 56% | 1013.6 hPa | 0 mm | - | 0 W/m² | - |
| 1777866400 | 8.89° C | 57% | 1013.5 hPa | 0 mm | - | 0 W/m² | - |
| 1777865897 | 8.89° C | 60% | 1013.5 hPa | 0 mm | - | 0 W/m² | - |
| 1777865542 | 8.89° C | 56% | 1013.5 hPa | 0 mm | - | 0 W/m² | - |
| 1777864946 | 8.89° C | 55% | 1013.4 hPa | 0 mm | - | 0 W/m² | - |
| 1777864769 | 8.89° C | 62% | 1013.5 hPa | 0 mm | - | 0 W/m² | - |
| 1777864641 | 8.33° C | 58% | 1013.4 hPa | 0 mm | - | 0 W/m² | - |
| 1777864528 | 8.33° C | 62% | 1013.2 hPa | 0 mm | - | 0 W/m² | - |
| 1777864045 | 8.33° C | 64% | 1013.2 hPa | 0 mm | - | 0 W/m² | - |
| 1777863497 | 8.89° C | 61% | 1013.4 hPa | 0 mm | - | 0 W/m² | - |
| 1777862725 | 10° C | 59% | 1013.2 hPa | 0 mm | - | 0 W/m² | - |
| 1777862596 | 10° C | 57% | 1013.4 hPa | 0 mm | - | 0 W/m² | - |
* Rain latest hour (hover to see other rain measurements)
** Current wind speed in m/s (hover to see current wind gust speed)